Probability
0 0 0 0 0 0 0 0 0 0 0 0 0 0 0 0 0 0 0 0 0 0 0 0 0 0 0 0 0 0 0 0 0 0 0 0 0 0 0 0 0 0 0 0
0 0 0 0 0 0 0 0 0 0 0 0 0 0 0 0 0 0 0 0 0 0 0 0 0 0 0 0 0 0 0 0 0 0 0 0 0 0 0 0 0 0 0 0
0 0 0 0 0 0 0 0 0 0 0 0 0 0 0 0 0 0 0 0 0 0 0 0 0 0 0 0 0 0 0 0 0 0 0 0 0 0 0 0 0 0 0 0
0 0 0 0 0 0 0 0 0 0 0 0 0 0 0 0 0 0 0 0 0 0 0 0 0 0 0 0 0 0 0 0 0 0 0 0 0 0 0 0 0 0 0 0
0 0 0 0 0 0 0 0 0 0 0 0 0 0 0 0 0 0 0 0 0 0 0 0 0 0 0 0 0 0 0 0 0 0 0 0 0 0 0 0 0 0 0 0
0 0 0 0 0 0 0 0 0 0 0 0 0 0 0 0 0 0 0 0 0 0 0 0 0 0 0 0 0 0 0 0 0 0 0 0 0 0 0 0 0 0 0 0
0 0 0 0 0 0 0 0 0 0 0 0 0 0 0 0 0 0 0 0 0 0 0 0 0 0 0 0 0 0 0 0 0 0 0 0 0 0 0 0 0 0 0 0
0 0 0 0 0 0 0 0 0 0 0 0 0 0 0 0 0 0 0 0 0 0 0 0 0 0 0 0 0 0 0 0 0 0 0 0 0 0 0 0 0 0 0 0
0 0 0 0 0 0 0 0 0 0 0 0 0 0 0 0 0 0 0 0 0 0 0 0 0 0 0 0 0 0 0 0 0 0 0 0 0 0 0 0 0 0 0 0
0 0 0 0 0 0 0 0 0 0 0 0 0 0 0 0 0 0 0 0 0 0 0 0 0 0 0 0 0 0 0 0 0 0 0 0 0 0 0 0 0 0 0 0
0 0 0 0 0 0 0 0 0 0 0 0 0 0 0 0 0 0 0 0 0 0 0 0 0 0 0 0 0 0 0 0 0 0 0 0 0 0 0 0 0 0 0 0
0 0 0 0 0 0 0 0 0 0 0 0 0 0 0 0 0 0 0 0 0 0 0 0 0 0 0 0 0 0 0 0 0 0 0 0 0 0 0 0 0 0 0 0
0 0 0 0 0 0 0 0 0 0 0 0 0 0 0 0 0 0 0 0 0 0 0 0 0 0 0 0 0 0 0 0 0 0 0 0 0 0 0 0 0 0 0 0
0 0 0 0 0 0 0 0 0 0 0 0 0 0 0 0 0 0 0 0 0 0 0 0 0 0 0 0 0 0 0 0 0 0 0 0 0 0 0 0 0 0 0 0
0 0 0 0 0 0 0 0 0 0 0 0 0 0 0 0 0 0 0 0 0 0 0 0 0 0 0 0 0 0 0 0 0 0 0 0 0 0 0 0 0 0 0 0
0 0 0 0 0 0 0 0 0 0 0 0 0 0 0 0 0 0 0 0 0 0 0 0 0 0 1 0 0 0 0 0 0 0 0 0 0 0 0 0 0 0 0 0
0 0 0 0 0 0 0 0 0 0 0 0 0 0 0 0 0 0 0 0 0 0 0 0 0 1 1 0 0 0 0 0 0 0 0 0 0 0 0 0 0 0 0 0
0 0 0 0 0 0 0 0 0 0 0 0 0 0 0 0 0 0 0 0 0 0 0 0 1 1 1 1 0 0 0 0 0 0 0 0 0 0 0 0 0 0 0 0
0 0 0 0 0 0 0 0 0 0 0 0 0 0 0 0 0 0 0 0 0 1 1 1 1 1 2 2 1 1 0 0 0 0 0 0 0 0 0 0 0 0 0 0
0 0 0 0 0 0 0 0 0 0 0 0 0 0 0 0 0 0 0 0 0 1 1 0 0 1 2 2 1 0 0 0 0 0 0 0 0 0 0 0 0 0 0 0
0 0 0 0 0 0 0 0 0 0 0 0 0 0 0 0 0 1 1 0 0 1 0 0 0 1 2 2 1 0 0 0 0 0 0 0 0 0 0 0 0 0 0 0
0 0 0 0 0 0 0 0 0 0 0 0 0 0 0 0 0 1 1 0 0 0 0 0 0 1 1 1 0 0 0 0 0 0 0 0 0 0 0 0 0 0 0 0
0 0 0 0 0 0 0 0 0 0 0 0 0 0 0 1 1 1 1 0 0 0 0 0 0 0 0 0 0 0 0 0 1 1 0 0 0 0 0 0 0 0 0 0
0 0 0 0 0 0 0 0 0 0 0 0 0 0 1 2 2 2 1 1 0 0 0 0 0 0 0 0 0 0 0 0 1 1 0 0 0 0 0 0 0 0 0 0
0 0 0 0 0 0 0 0 0 0 0 0 0 0 1 2 2 2 2 1 0 0 0 0 0 0 0 0 0 0 0 0 0 0 0 0 0 0 0 0 0 0 0 0
0 0 0 0 0 0 0 0 0 0 0 0 0 0 0 1 1 1 1 0 0 0 0 0 0 0 0 0 0 0 0 0 0 0 0 0 0 0 0 0 0 1 1 1
0 0 0 0 0 0 0 0 0 0 0 0 0 0 0 0 0 0 0 0 0 0 0 0 0 0 0 0 0 0 0 0 0 0 0 0 0 0 0 0 0 1 2 1
Wind_Speed
6 5 6 7 6 7 9 7 7 4 2 2 6 7 7 7 6 5 4 3 2 1 1 3 3 4 4 5 6 6 7 8 8 8 8 8 9 9 9 9 10 9 10 10
7 5 6 8 8 8 8 7 6 5 2 4 5 6 7 7 6 5 4 3 1 1 2 3 4 4 5 5 6 7 7 8 8 8 9 8 9 9 9 9 9 9 10 10
7 3 7 9 6 6 6 6 6 5 0 7 6 7 7 6 6 4 3 2 1 1 2 3 3 4 5 6 6 7 7 8 8 8 8 9 9 9 9 9 9 9 10 10
7 5 8 1 2 3 5 5 5 3 3 5 5 5 5 5 5 4 3 2 1 1 1 2 3 4 5 6 6 7 7 8 8 8 9 9 9 9 9 9 9 9 10 10
7 8 6 3 5 5 5 5 5 5 4 5 5 5 7 6 5 4 3 2 1 0 1 2 3 4 5 6 6 7 7 8 8 9 9 10 10 10 9 9 10 10 9 10
7 7 6 1 6 4 5 5 5 6 6 7 8 6 4 7 7 5 4 3 2 1 1 2 3 4 5 6 6 7 8 8 9 9 9 10 10 10 9 9 10 10 9 9
9 8 5 5 8 7 6 2 6 6 7 9 8 1 5 7 7 6 5 4 3 2 2 2 3 4 5 6 6 7 8 8 9 9 9 9 9 9 9 9 9 9 10 9
6 8 2 8 8 6 3 4 4 5 7 9 7 6 6 7 7 6 6 5 4 3 2 2 3 4 6 6 6 7 7 8 9 9 9 8 8 9 8 9 9 8 8 8
4 2 4 4 4 1 1 2 4 5 7 9 8 8 7 7 7 6 6 5 4 4 3 3 3 4 6 6 6 7 8 9 9 9 8 8 8 9 8 7 7 7 7 7
5 4 2 4 5 5 5 5 4 5 7 9 9 9 8 7 7 6 6 5 5 5 4 4 4 5 6 6 6 7 8 8 8 8 8 7 6 7 7 7 7 7 8 8
7 5 5 3 2 3 4 5 5 5 7 8 9 9 8 7 7 6 6 5 5 5 5 5 4 5 6 5 6 7 8 8 8 8 7 8 7 6 7 6 5 7 9 9
5 5 6 6 5 5 4 5 5 6 7 8 8 8 8 7 6 6 6 5 5 6 6 6 5 6 6 6 6 7 8 8 7 7 6 7 8 7 5 7 6 10 11 11
8 9 10 9 8 5 5 5 5 6 7 7 7 7 7 6 6 6 6 6 6 6 6 6 6 7 6 6 7 8 9 8 7 8 7 7 7 8 8 5 9 12 12 11
7 7 6 5 5 3 3 3 4 5 5 5 5 5 5 5 5 6 6 6 6 6 7 7 7 8 7 6 7 9 9 8 7 7 7 8 7 8 7 8 7 6 6 9
5 4 4 4 4 3 1 1 3 4 4 4 4 5 5 5 6 6 5 5 6 7 7 7 8 8 6 7 8 9 9 7 6 7 8 8 7 8 7 7 7 7 7 2
5 4 4 4 4 4 3 2 2 2 2 2 3 3 3 4 4 4 5 5 7 8 8 8 8 8 6 7 7 8 8 7 7 8 8 7 7 7 7 6 6 6 6 6
4 6 7 6 6 5 4 3 2 2 1 0 0 1 2 2 3 4 5 6 8 8 8 8 8 7 7 7 8 7 7 6 7 8 7 7 7 7 7 6 6 6 6 4
6 6 6 6 6 6 5 5 4 3 3 2 1 1 1 3 4 5 6 6 7 8 9 8 7 7 7 8 7 7 7 7 6 6 6 6 6 7 7 6 6 7 6 3
8 8 8 8 7 6 6 6 5 4 3 3 2 1 2 3 4 5 6 6 7 8 8 7 6 8 9 7 6 7 8 7 7 6 6 5 6 7 6 6 6 6 6 5
9 9 9 9 9 8 7 6 5 4 4 3 3 3 4 5 5 6 6 7 7 7 6 5 6 7 8 7 7 7 7 7 7 7 6 6 6 6 6 6 6 5 5 5
8 9 9 9 8 8 7 6 5 4 4 4 4 5 6 6 7 6 7 7 6 6 7 5 6 6 6 4 7 7 7 6 6 6 6 6 6 6 6 6 5 5 4 5
6 7 8 8 8 7 7 6 6 6 6 5 6 6 7 7 7 7 7 7 7 4 5 6 5 4 3 5 7 7 6 6 6 6 6 6 6 6 6 6 5 5 4 4
5 6 7 8 8 8 7 6 6 6 6 7 7 7 7 8 7 7 8 6 7 5 6 6 3 1 3 7 7 7 7 6 6 6 6 5 5 5 5 5 4 4 3 4
6 7 7 8 8 8 8 7 7 6 7 7 6 6 7 7 7 7 7 6 5 5 7 4 1 3 6 7 7 7 6 5 5 5 5 5 5 5 4 4 4 4 3 4
7 8 8 8 9 7 7 7 7 6 7 6 7 7 7 6 7 8 9 10 7 6 7 4 4 5 7 6 6 6 5 4 4 5 5 5 5 5 4 3 3 3 3 3
7 8 7 7 7 7 7 7 7 6 7 7 7 7 7 7 8 8 8 9 10 7 8 5 4 5 5 5 5 5 5 4 4 5 5 5 5 5 4 3 3 2 2 3
8 7 6 7 6 6 6 7 7 8 8 8 9 9 9 9 9 9 10 9 8 7 7 6 5 4 5 5 4 4 4 4 4 4 3 4 3 3 3 3 2 2 2 2
Wind_Direction
284 288 270 269 250 220 236 272 292 315 314 133 175 186 178 176 177 182 184 188 200 267 331 326 328 326 328 327 331 326 319 317 319 317 314 312 310 307 306 302 297 296 293 289
261 255 258 259 252 241 240 251 261 268 265 109 141 165 173 181 189 197 196 196 209 273 313 328 331 329 328 326 329 323 319 320 323 318 316 314 310 308 305 301 299 296 292 291
263 253 255 246 238 231 228 230 246 256 143 141 169 183 188 189 198 205 200 195 224 305 328 334 334 332 323 325 322 319 318 320 321 318 315 315 312 310 307 304 301 297 295 291
262 254 258 19 99 242 247 238 237 255 161 177 183 174 182 190 196 199 193 197 199 289 331 334 335 327 320 319 318 318 318 321 323 320 315 314 310 308 306 303 301 299 297 296
259 253 257 203 179 202 225 243 211 216 192 168 154 179 187 182 188 188 177 171 161 230 325 333 325 327 319 314 318 318 322 325 325 320 315 312 311 311 310 306 302 300 297 297
241 262 265 104 127 165 229 235 173 195 190 173 183 225 145 150 172 175 171 169 179 199 273 304 320 317 308 312 319 322 325 323 319 314 311 309 310 309 308 303 298 300 303 301
240 251 259 100 136 177 234 45 133 188 188 182 197 259 104 144 161 170 173 174 182 214 262 298 308 301 298 308 317 322 319 314 310 310 306 302 304 304 303 301 303 303 302 299
237 246 247 125 162 214 8 87 162 186 189 189 183 157 152 160 166 174 180 184 193 215 250 269 284 285 290 301 313 313 310 306 307 309 307 308 307 304 303 301 298 298 300 302
270 315 60 183 219 258 5 212 196 193 191 189 188 182 179 178 179 183 190 192 204 222 245 258 265 273 285 300 306 305 304 305 307 307 305 305 305 305 302 298 300 310 312 315
263 251 250 233 242 246 243 241 228 209 195 192 194 190 186 184 185 190 195 199 210 227 248 262 269 269 277 288 293 294 297 302 303 303 306 313 307 306 309 313 315 315 316 318
255 279 285 239 257 268 253 236 222 210 198 195 196 193 188 189 191 193 196 201 213 231 250 264 266 268 273 277 281 287 292 296 299 303 313 309 304 304 304 313 316 303 312 316
292 348 313 318 328 298 257 229 213 204 194 191 195 194 191 191 188 192 199 202 216 233 249 261 263 265 270 271 271 279 285 293 300 305 312 307 308 306 252 251 252 248 256 274
300 310 307 303 300 288 252 227 203 197 196 194 192 194 194 190 186 194 204 212 223 235 248 257 261 263 265 265 265 269 280 290 297 303 306 303 306 308 311 281 237 241 243 245
314 302 298 316 324 318 270 221 189 183 183 183 178 182 189 193 195 205 218 224 228 235 245 254 260 263 263 261 262 267 275 278 277 288 295 300 302 303 306 312 315 307 248 225
2 351 331 346 355 12 21 137 154 155 155 159 162 179 192 203 211 218 222 228 233 240 247 255 260 263 263 260 262 268 274 280 290 296 294 295 299 298 301 307 309 314 317 282
353 6 19 28 32 42 53 79 115 126 141 164 174 180 198 217 230 237 232 228 235 245 250 254 259 262 260 258 260 262 261 256 265 283 288 292 298 302 305 308 312 318 321 332
16 29 27 26 32 37 38 36 39 38 58 106 181 197 221 237 248 254 254 248 249 256 257 256 259 260 255 251 257 266 274 265 232 262 276 291 301 304 303 307 313 317 321 339
47 41 34 24 22 27 26 24 24 23 16 10 13 28 287 273 271 274 272 268 262 259 258 258 260 259 252 247 251 265 269 274 276 278 286 290 300 299 298 304 310 314 316 315
51 48 43 38 32 30 25 23 21 21 18 14 10 356 303 291 293 291 285 275 270 269 269 263 247 248 249 243 242 248 260 268 272 274 278 280 277 285 294 303 306 311 320 322
49 44 40 37 32 28 25 21 16 13 11 6 355 334 317 309 302 294 285 275 277 293 300 279 249 243 246 236 229 249 251 258 267 273 277 282 288 294 298 302 307 317 326 321
39 33 29 26 22 18 14 8 1 354 349 338 329 323 320 317 311 302 293 288 294 297 287 259 250 252 244 241 222 248 251 252 260 267 272 277 284 292 298 304 306 314 321 321
21 15 10 6 2 359 358 349 341 337 335 330 324 324 322 317 313 305 293 296 308 325 294 278 267 270 266 256 245 247 249 252 258 262 265 271 280 289 296 302 307 313 317 317
358 354 349 348 343 336 330 326 328 326 324 323 321 322 323 321 318 313 308 320 317 331 296 292 314 276 240 249 255 250 250 254 260 264 266 271 279 286 293 300 304 307 314 316
329 330 328 326 322 316 316 319 318 312 309 304 309 321 316 312 313 314 321 330 327 314 297 307 243 232 241 252 253 251 251 251 257 266 272 273 278 284 289 298 309 318 325 323
314 312 312 313 307 309 313 302 294 295 298 310 318 323 317 320 319 322 319 318 322 303 297 283 217 229 248 260 258 256 252 254 271 280 273 277 280 283 286 294 309 316 325 328
302 300 308 305 304 299 297 300 303 309 312 314 316 320 318 318 317 313 308 310 314 306 296 294 277 251 263 265 263 261 261 246 241 254 268 274 277 284 291 302 315 320 330 335
282 279 274 277 282 291 300 303 303 306 309 311 315 316 314 312 311 312 311 310 310 307 305 301 298 291 281 276 270 265 265 266 263 266 271 269 271 280 288 289 296 308 319 340